Theta_e
313 313 314 316 320 323 323 320 318 319 319 314 314 316 317 316 316 317 315 316 314 311 312 313 315 322 334 343 345 344 345 344 345 345 344 342 339 339 338 336 336 336 335 332 331 331 331 331 331 331 331 330 330 331 331 329 331 335 338 339 340 341 339 335 334 334 333 331 331 330 329 328 328 329 329 329 329 329 328 327 326 327 327 328 329 329
317 313 317 322 322 325 327 323 318 317 317 315 316 318 317 317 318 316 314 317 316 313 312 313 317 323 331 341 343 342 344 344 345 344 343 342 340 338 337 337 337 335 333 332 331 329 330 331 330 330 330 329 328 329 329 328 330 334 336 338 339 340 337 334 334 334 332 329 329 328 328 328 327 327 328 328 328 328 327 325 324 325 326 326 327 328
318 315 321 322 319 322 324 323 320 317 318 319 318 318 317 317 317 316 317 320 319 316 314 314 316 319 324 333 337 338 343 342 340 340 341 341 340 339 337 337 337 335 335 334 333 329 329 330 330 330 329 329 329 328 329 329 329 332 334 336 338 338 336 334 334 333 330 328 327 327 327 327 327 326 327 326 326 326 325 323 322 323 323 324 325 327
315 317 319 318 318 319 318 322 325 320 318 321 320 317 317 316 314 316 321 324 321 319 318 317 319 320 323 326 326 327 333 338 339 338 339 339 338 338 336 337 336 335 335 335 334 330 328 329 329 329 329 329 329 328 329 329 329 330 332 334 336 338 335 332 332 331 329 325 325 326 326 327 327 326 327 326 325 324 323 322 321 321 321 321 323 325
313 314 317 318 320 319 315 320 324 318 319 326 325 319 319 318 315 316 320 326 330 324 320 324 323 320 323 327 326 324 329 337 340 338 339 337 336 336 335 335 334 334 334 334 334 331 328 327 328 329 329 329 329 329 329 329 329 330 331 333 336 337 333 330 331 329 326 324 324 326 327 327 326 325 324 323 323 322 322 321 321 320 319 320 321 322
313 312 314 317 319 318 316 320 324 320 320 327 328 323 320 321 319 320 321 326 334 324 316 323 323 318 326 329 325 324 327 333 335 338 339 336 335 335 335 335 334 333 333 332 331 330 327 326 327 329 329 329 329 329 329 329 330 331 332 334 335 333 330 329 330 327 324 324 324 325 326 326 324 323 322 321 321 321 321 320 320 320 319 320 320 320
315 312 312 317 320 319 315 319 324 323 319 320 325 323 320 322 321 324 325 322 324 322 317 321 321 320 326 325 321 322 326 332 333 336 338 336 337 336 334 335 334 333 332 331 331 330 328 327 327 329 329 329 329 329 329 329 329 330 331 333 331 330 329 328 327 325 324 324 323 322 323 323 322 321 321 321 321 321 320 320 319 319 319 320 320 320
315 313 315 319 325 322 317 321 324 321 319 320 324 321 320 323 321 326 332 326 321 319 320 327 326 321 321 321 323 323 326 331 333 335 336 335 336 335 335 334 334 333 332 331 332 331 329 326 326 328 329 329 329 329 329 328 327 328 328 328 328 327 327 326 325 324 324 323 322 322 322 322 322 321 321 320 320 320 320 320 319 319 319 319 319 319
317 314 317 320 323 320 321 328 324 317 318 323 323 319 320 323 326 332 334 331 327 318 319 330 326 320 325 331 327 324 329 334 334 334 333 334 334 334 334 335 334 333 332 330 331 331 328 326 327 329 329 329 329 329 329 328 327 325 325 324 325 325 324 324 324 324 323 321 320 322 322 322 321 319 319 319 320 320 320 320 319 319 319 319 319 319
315 314 317 318 318 320 326 326 319 316 317 319 317 316 318 322 329 336 332 329 330 322 321 328 322 316 327 337 326 318 325 334 335 334 329 329 331 331 332 334 333 331 331 330 330 329 326 326 327 329 329 329 329 329 330 328 327 326 325 324 323 324 323 322 322 323 322 321 320 322 322 322 320 317 316 318 320 320 320 320 319 319 318 318 319 319
315 315 317 316 316 319 323 317 311 314 313 313 318 319 318 323 332 337 335 330 325 323 325 327 325 318 320 331 329 320 318 322 326 329 327 326 328 330 331 333 332 330 330 330 330 327 324 325 328 329 330 330 329 329 329 329 327 327 326 324 324 324 322 321 321 321 322 321 321 322 322 321 320 316 313 315 319 320 319 319 319 318 317 318 318 318
316 314 314 317 316 314 315 312 308 311 312 315 324 322 316 323 329 330 333 328 321 325 328 327 326 319 318 325 324 321 320 317 318 320 320 323 325 328 330 331 331 330 329 330 331 329 326 327 328 328 330 329 329 329 329 329 328 326 325 325 325 324 322 322 321 321 322 321 322 322 322 321 320 318 313 311 313 316 318 318 318 318 317 317 317 317
319 316 315 316 316 312 313 314 308 309 316 317 322 323 319 322 324 323 326 325 325 327 323 324 323 318 325 327 318 321 325 322 319 317 317 319 322 326 329 330 330 329 329 329 329 328 329 330 327 327 329 328 329 330 329 330 329 326 326 326 326 324 323 322 322 322 322 322 322 322 322 321 320 318 314 310 309 312 316 317 318 318 316 316 316 315
318 320 317 313 314 313 314 316 311 311 316 315 318 321 322 323 321 320 321 321 324 325 320 321 321 319 328 326 318 323 328 327 325 322 322 325 327 330 330 330 330 329 330 330 327 326 327 327 326 326 328 328 329 330 329 330 330 328 327 325 324 322 322 323 322 322 322 322 322 322 322 321 320 318 315 311 310 311 314 316 317 317 315 314 315 315
318 320 319 315 313 312 312 314 315 318 316 313 316 317 319 326 325 320 322 323 322 324 322 318 316 322 327 319 317 324 327 327 328 324 325 326 326 328 327 327 328 328 329 330 329 329 324 321 324 326 327 328 329 330 330 330 330 329 326 323 321 322 323 324 323 324 323 322 321 321 321 320 320 318 314 312 312 312 313 313 315 315 314 314 313 314
313 317 322 317 311 310 311 312 313 317 314 310 312 313 315 322 327 321 318 324 326 324 322 318 317 324 325 318 318 326 329 329 327 325 326 327 325 326 325 325 326 327 330 331 333 337 330 320 321 325 326 327 328 330 330 330 330 328 324 321 321 322 323 323 324 324 323 322 320 320 320 320 319 317 315 314 314 314 315 314 314 314 313 314 313 313
313 318 321 315 311 310 310 310 310 311 314 313 310 314 316 315 326 326 316 318 325 324 319 318 320 324 325 322 321 327 331 329 328 327 327 327 327 328 326 326 327 329 331 330 331 337 331 320 320 323 324 326 327 329 330 330 329 326 322 321 321 320 321 322 323 323 322 321 320 319 319 319 318 317 317 315 314 317 317 314 314 314 313 313 312 312
319 323 320 313 310 310 309 309 310 309 313 315 312 314 314 311 319 328 325 322 322 322 321 317 319 324 328 327 322 323 329 328 327 327 326 327 328 328 328 328 330 331 330 327 325 326 323 318 320 323 323 326 328 328 330 330 327 325 322 322 321 319 321 323 323 323 322 321 320 319 319 318 318 317 318 317 315 318 316 309 311 315 313 313 312 310
317 320 320 315 311 312 313 312 312 310 309 313 314 312 313 317 319 318 322 325 319 319 321 316 317 323 327 327 322 322 330 331 327 326 327 328 328 328 328 328 328 327 326 325 324 323 321 318 319 322 323 324 326 327 329 328 326 325 323 322 323 323 322 323 324 324 322 322 320 319 318 318 318 318 318 317 315 317 314 307 310 315 314 312 311 309
318 317 318 316 310 311 315 316 318 317 309 308 312 310 315 325 325 318 320 323 322 322 321 318 318 323 329 332 328 324 330 333 330 328 329 328 327 327 325 325 325 324 324 324 322 322 320 316 317 321 322 323 324 325 327 326 324 324 322 323 326 325 321 321 324 324 323 322 320 319 318 317 318 319 320 318 316 316 313 307 311 315 315 314 311 309
318 312 317 322 316 312 313 315 317 319 313 312 315 312 315 318 316 316 317 316 321 327 325 321 320 327 332 331 329 326 327 329 329 330 329 327 327 326 324 325 325 325 325 323 321 322 319 316 317 320 322 323 324 324 325 325 324 323 323 324 326 324 321 320 323 323 322 321 319 318 318 318 319 320 320 319 317 316 313 310 312 314 316 317 315 313
316 314 324 328 320 314 311 309 310 312 313 318 319 314 318 320 317 317 315 312 318 325 324 324 326 329 326 320 323 328 327 325 327 329 329 327 327 325 324 325 324 325 325 322 321 322 318 315 316 319 322 323 323 324 324 325 324 323 322 322 324 323 322 321 321 322 321 319 319 318 317 318 320 320 320 320 318 317 316 315 314 314 316 318 317 316
321 326 327 319 313 311 310 309 309 308 310 315 315 314 320 322 322 328 326 319 318 315 314 321 327 326 319 315 319 323 322 323 326 329 329 326 325 324 324 324 323 323 323 321 322 320 315 315 317 319 320 322 323 323 324 324 324 323 322 321 321 321 321 321 319 319 320 320 320 320 318 317 318 318 320 320 318 318 318 317 316 315 316 318 318 317
322 325 320 315 317 319 316 315 313 310 312 314 312 313 315 314 318 330 332 327 323 318 316 318 321 322 319 316 318 320 321 324 325 327 328 326 325 325 324 324 323 323 321 321 322 318 313 315 317 319 320 320 321 322 323 324 324 323 323 321 321 320 321 321 320 319 321 321 321 321 320 317 316 317 319 320 319 318 318 318 318 318 318 319 319 318
315 317 318 317 316 317 316 316 316 314 314 313 312 312 313 314 318 320 320 325 325 318 319 321 321 323 320 314 316 320 322 324 324 323 325 325 325 325 324 324 323 324 324 324 323 320 318 317 316 316 319 320 321 321 322 322 322 322 323 322 321 321 321 322 322 322 322 321 321 320 318 316 317 318 320 320 319 319 318 318 318 318 319 319 319 319
317 317 324 323 316 314 316 318 321 319 313 311 312 313 313 314 316 312 315 327 323 312 316 327 327 324 319 315 315 316 318 323 323 322 323 323 323 323 323 322 322 324 326 324 322 321 320 317 314 314 317 319 320 321 321 322 322 321 322 322 322 322 322 322 322 322 322 321 320 318 317 318 319 320 320 320 320 319 319 318 318 319 319 319 319 319
324 316 318 321 315 314 317 318 318 317 314 312 312 313 316 317 320 321 320 324 322 314 314 320 322 322 318 314 312 312 315 319 319 320 322 321 321 321 321 320 320 321 321 319 319 319 318 316 313 312 314 316 317 319 320 321 322 321 321 321 321 321 322 322 322 321 321 321 319 318 318 319 319 320 320 320 320 319 319 319 319 318 318 318 318 318
330 318 314 317 313 309 311 311 309 311 313 313 312 314 318 321 325 326 318 312 316 320 317 314 318 322 315 309 310 310 311 314 314 314 316 316 318 319 319 320 319 319 318 316 316 316 316 316 312 308 311 313 314 316 318 318 320 321 321 321 321 321 321 321 321 321 321 321 320 319 319 319 319 319 320 320 319 319 319 319 318 316 317 318 318 318
330 319 312 315 313 309 308 307 308 311 311 312 315 316 319 323 324 320 316 312 314 321 322 316 317 318 310 306 309 309 308 309 309 308 309 310 313 316 319 320 319 318 317 316 316 314 315 315 309 305 308 310 311 313 315 317 318 319 320 320 320 321 321 321 321 320 321 321 320 321 321 320 320 320 320 320 320 319 319 319 318 318 318 319 319 318
324 317 312 313 313 309 309 309 310 312 313 313 313 312 314 318 317 315 314 312 312 314 314 312 314 311 306 306 307 307 307 306 305 306 307 308 310 312 315 315 314 314 313 312 312 311 312 311 304 302 306 308 308 310 311 313 315 316 318 319 320 320 320 320 320 320 320 320 320 321 320 320 320 320 320 320 320 320 320 319 319 319 319 320 319 318
319 316 315 319 317 310 310 314 314 316 317 315 314 312 313 314 314 313 312 311 312 311 307 310 315 309 305 305 305 305 305 304 304 306 306 307 308 308 310 310 310 309 309 308 308 308 309 307 302 301 302 304 306 307 307 309 310 312 314 317 319 320 320 320 320 320 320 320 320 320 319 318 318 318 319 320 320 320 319 319 319 318 318 319 319 319
322 315 313 319 316 309 309 314 317 317 314 313 314 314 315 316 316 313 310 308 310 310 309 314 316 309 306 306 304 302 302 302 303 304 304 305 307 307 308 308 308 308 308 308 308 309 309 308 304 302 301 301 303 304 304 306 307 308 309 312 315 319 319 319 320 320 320 320 320 319 319 318 318 318 318 319 318 319 319 318 319 318 319 319 319 319
319 313 311 315 314 309 308 310 312 312 311 313 313 310 309 310 309 308 306 304 304 307 312 316 313 306 305 306 303 301 301 301 301 301 302 304 304 305 306 306 306 307 308 308 308 309 309 307 304 303 303 303 304 304 304 304 304 306 306 307 309 312 313 313 314 316 316 317 319 319 319 320 320 319 319 320 320 320 319 318 318 318 318 317 316 316
316 315 313 316 316 310 308 310 309 309 312 312 307 305 306 307 307 306 306 303 302 304 307 308 305 303 303 303 302 301 300 299 299 299 299 300 301 302 302 303 304 304 304 305 304 304 304 304 304 304 305 305 305 305 305 304 304 304 305 305 305 306 307 307 308 309 310 310 313 315 314 315 315 315 317 319 319 317 315 314 314 314 313 312 311 312
320 318 314 317 319 312 309 312 311 311 311 308 304 304 305 304 303 303 302 301 302 303 303 303 303 303 303 302 301 300 299 298 298 297 297 298 299 299 300 300 301 302 302 302 301 299 299 301 304 306 305 305 305 305 304 304 304 304 304 305 305 305 305 305 306 306 307 306 307 308 307 308 308 309 311 312 313 311 310 310 311 310 309 308 308 308
319 318 313 312 312 309 310 313 312 309 305 304 305 305 304 304 306 306 305 302 302 303 303 302 302 302 302 302 302 302 301 299 297 297 297 297 298 299 300 300 301 301 301 300 299 298 297 300 303 305 303 301 302 303 302 302 303 304 304 304 304 305 305 305 305 306 306 306 306 306 306 306 306 307 308 308 308 309 309 309 308 307 306 306 306 306
313 315 315 311 307 309 312 311 308 307 306 306 307 305 303 304 305 307 307 303 300 302 302 301 302 303 302 303 303 303 304 303 301 298 297 297 298 298 298 298 298 299 297 297 297 298 298 298 300 300 300 299 300 300 300 301 302 303 303 303 304 304 304 305 305 305 305 305 305 306 306 306 306 306 307 307 307 307 307 306 306 306 306 305 304 304
308 310 313 311 306 308 313 311 309 311 313 309 307 304 303 303 302 304 308 304 301 302 301 301 303 303 302 304 303 303 306 307 303 299 298 298 298 298 297 296 295 296 296 297 297 298 298 299 299 298 299 299 299 299 299 299 300 301 302 303 303 303 304 305 305 305 305 304 304 305 305 305 306 306 307 307 306 306 306 306 306 306 305 305 304 304
307 309 314 314 308 307 314 317 314 313 311 306 304 305 304 302 301 304 309 306 300 300 300 300 302 302 302 304 303 304 309 308 303 300 300 299 298 297 297 296 296 296 297 297 297 298 298 298 298 298 299 299 299 299 299 299 299 299 300 301 301 301 302 303 304 305 305 305 305 305 305 305 305 305 306 306 306 307 306 306 306 306 305 305 305 305
311 312 314 314 311 309 313 316 311 308 306 303 303 305 303 300 300 305 311 308 300 298 299 299 301 301 301 302 303 305 307 306 302 301 299 297 296 296 296 296 296 296 297 297 298 298 298 298 298 298 298 299 299 299 299 299 299 299 299 299 300 300 301 301 302 303 304 305 306 306 306 306 305 305 306 306 306 307 307 306 306 306 306 306 306 305
311 311 308 308 310 309 312 313 307 305 304 301 302 303 300 299 302 308 310 305 299 298 298 299 299 300 300 302 302 301 300 300 300 300 297 296 296 296 296 295 295 296 296 296 297 297 297 298 298 298 298 298 298 298 299 299 298 299 299 299 299 299 300 300 301 301 302 303 304 306 306 306 306 306 306 306 306 306 306 306 306 306 306 305 306 306
308 308 306 306 307 306 306 308 307 305 302 300 300 301 301 303 307 305 302 300 299 299 298 298 298 298 298 300 300 298 298 300 300 299 298 297 296 294 294 294 295 295 295 296 296 296 296 296 297 298 298 298 298 298 298 298 298 298 299 299 299 299 299 300 300 300 301 301 302 303 304 305 305 305 305 305 305 305 306 306 305 305 305 305 306 306
303 306 306 304 303 304 305 307 309 307 301 298 300 301 302 304 304 300 298 299 300 299 298 299 298 297 297 299 298 298 299 300 299 297 297 296 294 293 293 293 293 294 294 294 295 295 295 295 295 296 297 297 298 298 298 298 298 298 298 299 299 299 299 299 300 300 300 300 301 302 302 303 304 304 304 305 305 304 305 305 305 305 305 305 306 307
301 305 306 303 302 306 308 306 304 302 299 298 300 301 301 301 299 299 300 300 299 299 299 299 298 296 297 298 298 298 298 298 297 295 295 295 293 291 292 293 293 293 293 293 294 294 294 294 294 295 296 297 297 297 297 298 298 298 298 298 298 299 299 299 299 300 300 300 300 301 301 302 302 303 304 304 304 304 305 305 304 304 304 304 305 306
300 302 304 302 299 302 304 302 299 299 299 298 300 300 299 299 300 301 301 300 299 299 298 299 298 297 296 296 297 298 298 296 295 294 293 294 292 291 291 292 292 292 292 292 292 293 292 292 292 293 294 295 296 297 297 297 298 298 298 298 298 298 298 298 299 299 299 300 300 300 301 301 302 303 303 304 304 304 304 304 304 304 304 304 304 305
297 298 301 301 298 298 300 298 298 299 299 298 298 298 298 299 300 300 300 300 298 297 297 297 297 296 296 296 297 298 297 295 294 294 293 292 291 290 290 291 291 291 291 291 291 291 291 291 291 291 292 293 294 295 296 296 296 296 297 298 298 298 298 298 298 298 298 299 299 300 300 300 301 302 303 303 304 304 304 304 304 303 303 303 304 304
298 298 300 300 299 300 300 298 297 298 298 297 298 297 297 298 298 298 299 298 296 296 296 296 295 295 295 296 296 296 295 294 293 293 292 291 290 289 289 290 290 290 290 290 290 289 289 290 290 290 290 291 292 293 293 294 294 295 296 296 297 298 298 298 298 298 298 298 299 299 300 300 300 301 302 303 303 303 304 304 303 303 303 303 303 304
297 298 299 300 300 300 299 298 297 298 297 298 299 298 298 298 297 297 297 296 294 294 293 293 293 294 294 294 294 293 293 292 292 291 290 290 289 288 289 289 289 289 289 289 289 289 289 289 289 289 289 289 290 290 291 291 292 293 293 294 295 296 297 297 298 298 298 297 297 298 300 300 300 301 301 302 302 302 303 303 302 303 303 303 303 303
298 298 297 298 299 298 297 297 297 298 298 298 298 298 298 297 298 297 296 295 296 295 294 292 291 291 292 292 291 291 292 291 290 289 289 289 288 288 288 288 288 289 289 288 288 288 288 288 288 288 288 288 289 289 289 290 290 291 291 292 293 294 295 296 297 297 298 298 298 298 299 300 300 300 301 301 301 302 302 302 302 302 302 303 303 303
300 299 297 297 299 299 299 298 298 299 300 298 297 298 297 297 298 298 297 297 298 297 296 295 293 290 290 291 290 290 291 290 288 288 288 288 288 288 288 288 288 288 289 289 289 289 288 288 289 288 289 289 289 289 289 289 289 289 289 290 291 292 293 294 295 296 296 297 298 298 299 299 300 300 300 300 300 301 302 302 302 303 303 303 303 303
299 298 299 302 302 300 299 298 298 300 301 297 297 299 297 296 298 298 297 297 297 294 292 293 293 291 291 290 290 289 289 289 288 288 287 287 288 288 288 288 289 289 289 289 289 289 289 289 289 289 290 290 290 289 289 289 289 289 289 289 289 290 290 291 293 294 295 296 297 297 298 299 299 299 300 300 300 300 301 301 302 302 303 303 303 304
Wind_Speed
3 3 1 4 5 6 7 6 6 5 5 5 3 2 3 3 4 6 5 6 2 5 4 6 6 5 6 8 8 9 7 7 8 7 6 7 7 7 8 8 8 7 5 3 5 8 11 12 12 14 17 17 17 19 20 17 16 21 23 22 22 20 18 17 16 15 14 13 10 9 8 7 7 7 5 5 5 5 6 6 6 6 5 5 4 4
5 3 5 8 9 8 6 5 4 4 4 3 2 1 3 3 5 7 4 5 2 4 2 2 6 2 5 7 6 8 9 9 10 9 9 10 9 8 9 10 9 5 3 4 5 8 11 11 11 13 15 16 16 18 20 18 18 22 23 23 23 21 19 17 17 16 15 12 10 9 9 8 8 7 6 6 5 5 5 6 6 6 6 6 6 6
4 2 9 9 6 5 4 5 5 4 3 3 2 2 2 3 4 7 3 4 3 3 1 2 6 1 3 4 4 6 7 6 6 6 7 9 9 9 10 10 8 6 4 5 5 8 12 13 12 14 14 15 16 17 19 20 20 22 23 23 23 21 19 18 17 17 14 11 10 8 8 9 8 8 6 5 4 4 4 4 5 5 5 5 5 6
0 5 8 5 7 6 3 3 7 5 2 3 3 3 3 3 1 3 4 5 5 2 3 5 6 3 4 1 2 3 1 3 4 5 4 6 8 8 9 8 7 8 7 6 6 7 11 14 15 16 15 15 15 16 18 19 21 22 23 24 23 21 20 20 19 18 14 12 11 9 8 9 8 7 6 5 4 4 4 3 3 2 2 3 4 5
5 6 2 6 7 7 4 3 6 5 1 3 4 5 4 4 4 5 4 5 5 4 4 5 5 4 3 1 4 3 2 4 4 6 6 5 5 4 5 6 6 7 7 7 6 6 8 11 15 16 16 16 16 17 18 19 20 22 24 23 22 22 23 21 21 19 16 14 13 12 11 10 9 8 7 6 6 5 4 4 3 3 2 2 3 4
7 6 5 6 4 5 5 4 5 7 2 4 4 8 8 5 5 4 3 5 4 4 3 4 5 2 5 1 5 3 1 2 2 6 7 6 5 5 6 6 6 6 6 6 5 5 6 9 12 15 17 18 18 19 19 20 21 22 23 23 23 25 24 23 22 20 17 16 15 14 14 13 11 10 9 7 7 6 5 6 6 6 6 4 4 3
4 3 4 6 5 5 4 4 5 7 5 2 5 8 8 6 3 1 1 3 2 0 2 3 5 1 5 3 3 3 1 1 1 5 6 5 6 6 6 5 5 6 6 5 5 6 7 9 12 14 18 21 21 20 20 20 22 24 25 25 26 26 25 24 23 21 19 17 15 14 14 14 13 12 10 8 8 7 7 7 8 8 8 6 5 4
4 2 3 4 5 5 4 4 6 8 8 3 5 6 7 6 4 3 4 3 2 2 2 5 5 4 1 3 4 3 2 2 3 6 6 6 7 6 6 6 6 7 6 6 6 7 7 10 13 15 18 20 21 21 22 24 24 24 25 25 26 25 25 24 23 22 21 18 16 15 14 14 12 11 10 9 8 8 7 7 8 8 8 7 6 4
3 4 2 4 5 2 4 5 7 10 6 5 5 7 6 5 5 4 5 3 1 1 1 6 4 4 2 5 5 4 3 4 6 8 8 7 8 8 7 6 7 7 6 6 7 7 9 12 15 15 16 18 21 24 23 19 14 12 15 20 23 24 24 23 22 23 21 17 16 15 15 14 12 9 9 9 9 9 8 6 7 7 7 6 6 4
3 5 5 5 3 4 6 5 9 10 4 4 6 6 5 6 5 5 5 3 3 3 3 6 4 3 2 5 3 3 1 5 7 6 7 7 7 7 7 6 7 6 6 6 6 7 10 13 14 14 15 17 20 20 16 12 9 9 13 18 22 25 23 22 22 23 21 17 15 15 14 13 12 10 10 10 10 9 7 6 6 6 6 6 5 5
3 2 3 3 3 5 4 2 5 5 3 4 6 6 6 6 5 4 3 4 4 2 5 6 2 3 1 5 3 0 1 5 5 6 6 7 7 8 7 7 7 6 6 6 6 6 9 12 13 13 15 17 16 14 13 14 16 21 24 22 22 24 23 21 21 22 20 16 14 14 13 13 12 10 10 11 11 9 8 7 7 6 6 6 6 6
6 4 2 3 2 4 5 4 2 2 3 5 5 5 4 4 5 4 4 3 4 2 5 5 3 3 3 3 3 4 7 6 6 7 7 6 7 8 8 6 6 6 6 6 6 6 7 9 10 12 14 14 13 14 15 18 24 29 29 25 23 22 20 19 20 20 18 16 15 15 14 13 11 10 9 10 9 9 9 8 8 7 6 6 6 7
4 3 4 5 2 4 5 4 3 5 5 5 5 5 4 2 3 2 3 1 1 4 4 3 3 2 3 4 4 6 9 6 5 7 7 6 7 6 6 5 5 5 5 5 3 3 4 7 9 12 13 13 13 15 16 19 25 29 29 28 25 20 16 16 17 18 17 17 17 17 16 15 13 11 10 9 9 9 9 8 7 6 6 6 6 6
4 5 4 3 3 2 6 5 2 1 1 4 5 5 4 3 3 1 2 1 2 4 2 4 3 1 3 3 3 5 7 6 5 5 4 4 4 5 6 5 5 5 5 5 5 4 3 1 8 10 11 13 14 16 18 20 25 30 29 24 16 13 14 17 17 17 17 17 18 19 18 16 15 13 11 10 10 10 9 6 5 5 5 5 5 6
2 3 3 3 2 1 4 5 5 5 3 3 4 5 5 4 4 3 3 2 2 2 2 4 1 2 2 2 4 5 5 5 4 3 2 3 5 6 7 7 7 6 6 6 6 5 6 8 2 10 11 14 17 19 20 21 26 28 21 14 18 15 14 16 15 15 16 17 18 18 19 18 17 15 12 11 11 10 8 6 4 4 4 3 4 5
3 4 6 4 1 2 3 2 4 6 3 1 3 5 3 5 5 3 3 4 4 2 1 2 1 2 3 3 5 4 4 6 5 4 6 7 6 8 8 8 7 5 5 5 4 6 1 11 8 8 13 16 18 20 22 24 25 21 13 18 23 20 16 15 15 16 16 18 18 19 20 20 18 16 14 13 12 11 8 5 3 3 3 2 2 4
3 4 6 4 2 2 3 3 4 4 2 1 2 3 4 4 7 6 2 1 3 4 1 1 1 2 2 2 5 5 5 5 5 4 5 6 8 9 8 7 7 5 6 5 3 2 3 8 10 7 12 15 17 19 22 23 20 13 14 22 27 22 21 20 19 18 18 19 19 20 20 20 19 17 15 14 13 12 9 4 2 4 4 3 3 4
4 2 6 1 2 2 1 3 4 3 4 4 3 5 3 3 5 5 3 3 4 3 2 2 0 2 1 0 4 4 2 2 4 4 3 4 7 9 8 8 9 8 6 3 4 2 1 3 5 7 12 15 18 20 21 21 15 12 17 24 25 22 26 26 22 20 20 20 19 19 20 20 20 18 16 14 12 12 10 7 4 7 5 4 4 5
4 0 7 2 2 4 5 6 4 4 4 4 4 4 4 3 1 2 3 2 2 2 2 3 2 2 2 2 3 3 4 3 1 0 2 3 5 6 6 7 8 8 7 3 2 3 1 1 1 6 13 16 18 19 20 19 15 16 22 22 17 21 25 24 24 24 22 20 19 19 20 21 21 20 17 14 13 14 14 11 8 8 6 5 5 6
3 2 4 3 1 2 5 4 2 2 4 4 2 3 2 2 4 2 3 3 4 4 2 1 2 2 5 4 5 6 7 6 5 3 1 2 3 3 3 5 6 6 6 4 2 1 2 4 5 5 10 13 15 16 16 17 17 21 25 20 16 21 23 23 24 25 24 21 19 19 21 22 22 22 19 17 17 17 16 14 11 9 7 6 6 6
3 3 3 4 3 2 1 0 3 4 2 3 2 1 1 2 3 2 2 2 4 5 3 2 1 4 5 3 5 6 7 7 5 3 1 2 4 3 2 4 6 6 5 3 2 2 3 5 7 7 7 9 11 13 14 16 19 22 22 18 16 19 22 23 24 24 23 20 19 21 22 22 24 24 21 20 19 18 18 16 13 11 9 8 8 7
2 3 3 2 4 2 1 3 3 4 5 5 3 3 3 3 4 4 2 1 2 4 4 5 2 5 4 2 3 4 5 6 4 4 2 2 4 4 4 5 5 5 5 3 3 4 3 5 8 9 9 8 10 11 13 15 18 21 22 20 18 19 22 21 22 24 22 21 22 23 23 21 22 22 20 20 20 19 19 18 14 12 12 12 12 11
3 4 3 1 1 1 4 4 3 1 4 6 4 2 4 3 4 5 4 3 2 3 2 4 2 4 5 3 5 5 4 5 5 6 5 3 4 4 4 5 5 4 4 3 4 4 3 5 8 10 10 9 9 9 11 13 15 19 21 21 22 21 21 20 20 21 22 23 24 25 24 22 21 19 19 21 22 21 21 19 16 13 13 15 15 14
2 3 4 1 3 4 5 5 5 4 6 6 4 3 3 2 2 5 5 4 4 3 2 3 1 4 5 5 4 3 1 2 4 5 6 4 3 4 5 5 5 3 2 2 4 4 4 6 7 9 10 9 8 7 8 9 11 14 17 20 21 20 19 18 17 18 21 23 24 25 25 23 22 20 20 22 23 23 21 19 17 15 15 17 16 14
0 1 4 3 2 3 3 4 5 5 4 4 1 2 2 3 4 3 2 3 3 4 4 5 3 5 4 5 6 6 6 6 5 4 5 5 4 4 4 4 4 3 2 3 4 4 4 4 5 7 8 8 8 7 6 7 9 11 13 15 17 17 16 15 16 17 20 22 23 23 23 22 21 21 21 24 24 23 22 20 18 16 15 14 11 10
3 2 3 5 4 4 3 2 3 1 2 1 1 3 4 4 4 2 2 4 2 3 4 5 4 4 4 7 9 9 8 7 6 5 5 4 4 4 3 3 3 3 4 4 4 3 3 3 3 4 7 7 7 7 7 8 8 9 11 11 13 14 14 14 14 15 16 19 21 22 21 19 19 19 20 23 24 23 23 22 18 15 13 11 8 10
5 3 2 5 4 5 6 5 4 3 3 1 1 3 4 2 2 3 4 2 4 4 2 2 4 3 4 8 9 9 8 6 6 6 5 5 5 5 4 4 5 5 5 5 5 5 5 5 4 4 4 5 6 6 7 8 9 10 11 11 10 11 12 13 13 13 13 15 18 19 18 17 17 16 16 19 22 23 23 21 18 15 14 12 14 16
5 3 3 5 5 1 2 2 2 4 5 2 1 3 4 4 5 6 4 1 3 6 1 5 1 4 3 6 7 7 7 5 6 6 5 5 5 4 4 5 6 6 6 6 6 6 6 6 7 9 9 8 6 6 7 8 9 10 10 10 11 10 11 12 12 12 12 13 14 16 17 18 17 16 15 17 20 22 22 19 16 15 14 13 15 16
6 2 2 3 5 6 5 5 6 6 4 4 4 4 4 6 7 6 3 2 2 5 4 2 5 5 3 5 5 5 5 4 5 5 4 5 5 5 7 7 7 7 7 7 7 6 6 6 6 9 13 14 13 12 10 9 8 8 8 9 9 10 10 10 11 11 12 12 13 14 16 17 17 16 15 16 18 19 19 16 15 14 13 12 13 12
4 2 1 4 5 6 7 6 7 8 6 5 6 6 5 8 9 7 3 3 4 4 4 7 11 6 3 4 5 5 4 3 5 6 7 7 7 7 8 8 7 7 7 7 7 6 6 6 7 11 14 16 16 17 15 13 11 9 7 6 6 7 8 9 9 10 10 10 11 13 14 14 15 16 16 16 16 16 15 15 14 13 12 11 11 11
4 3 2 5 5 4 6 5 6 7 5 4 5 6 5 8 9 7 4 4 5 5 4 8 11 7 3 3 4 5 4 6 9 10 9 8 7 8 10 9 8 8 7 7 7 7 7 7 10 13 15 16 18 18 17 15 13 10 8 6 3 3 4 5 6 8 8 9 9 11 12 12 12 14 15 15 15 15 14 14 13 11 10 10 9 9
4 3 2 5 5 2 3 1 1 4 6 4 3 5 6 5 5 4 2 2 2 4 4 6 7 3 1 3 4 5 8 11 11 9 8 7 7 9 10 9 8 8 7 7 7 8 8 8 10 13 15 18 21 22 21 18 15 12 11 8 5 3 2 1 2 3 5 6 7 9 9 9 10 12 14 14 13 12 11 11 11 10 9 7 7 7
2 5 4 4 4 3 1 2 4 5 6 2 2 2 3 3 5 5 4 4 2 3 5 4 3 4 2 1 4 7 10 11 9 7 7 7 7 9 9 8 8 7 6 6 7 7 7 7 9 13 16 18 20 22 23 22 19 17 14 10 7 4 2 1 1 2 3 3 5 6 6 7 7 9 10 11 10 9 7 7 7 6 6 5 5 7
3 5 4 2 4 4 2 2 4 4 4 3 5 3 1 2 5 7 5 4 5 3 3 4 4 3 3 4 6 8 8 7 6 6 5 5 6 8 8 8 8 7 7 8 8 8 9 10 11 14 16 16 17 19 20 20 20 19 16 13 11 9 6 3 2 3 3 3 4 4 5 6 6 6 7 7 8 7 6 5 5 5 6 6 7 7
3 4 3 1 4 4 1 3 4 3 4 3 4 2 3 5 7 11 9 5 6 6 5 6 6 5 5 5 6 7 7 7 7 7 7 6 6 7 8 8 8 8 8 8 8 10 13 16 16 17 18 18 16 16 17 17 16 16 16 15 14 14 12 9 6 4 3 1 1 2 3 4 5 5 6 7 7 8 7 7 8 9 10 10 10 9
4 3 2 2 3 3 2 3 3 3 3 2 4 3 3 3 4 8 8 6 5 5 3 4 4 3 4 3 2 3 4 5 6 7 7 6 6 6 7 6 6 7 7 6 8 10 14 15 15 15 17 17 17 16 15 14 13 12 12 12 12 12 12 10 9 7 6 5 3 2 2 3 3 3 5 6 6 7 9 11 12 13 13 11 10 8
4 3 2 2 1 3 4 2 0 3 2 2 1 1 1 0 1 3 5 2 3 4 1 3 3 2 2 2 2 2 2 4 6 6 6 6 6 5 5 5 5 6 7 8 10 12 14 14 14 14 14 15 16 17 16 15 12 11 10 9 9 9 8 7 8 8 6 5 3 2 3 4 4 4 5 6 7 9 10 11 11 11 10 10 9 7
3 2 3 3 1 3 5 3 2 3 1 5 4 3 2 2 3 4 5 2 3 4 3 2 4 3 3 3 4 3 3 5 5 4 5 6 6 5 6 7 8 9 10 11 12 13 14 14 13 13 13 13 14 16 16 15 14 12 11 9 9 10 9 9 9 9 7 4 4 3 2 2 5 7 8 9 9 9 9 9 9 9 9 8 7 6
7 3 3 4 2 2 5 4 3 3 4 5 5 5 5 3 3 4 5 1 2 4 4 3 4 4 4 4 3 3 4 4 1 3 4 5 6 6 6 8 11 13 13 13 13 13 13 13 12 11 12 13 13 14 14 14 14 13 12 11 12 12 12 12 11 10 7 2 2 2 4 2 1 4 7 9 11 11 10 9 9 9 9 8 6 4
6 5 4 4 2 2 4 3 2 2 3 3 4 6 5 1 4 6 2 4 3 3 3 3 5 3 2 3 3 5 5 3 3 4 4 3 4 5 5 7 10 13 14 15 15 14 13 13 12 12 12 11 11 12 12 13 13 13 12 13 13 13 13 13 13 12 11 10 8 9 10 10 7 4 3 5 7 9 9 9 9 8 8 6 5 4
4 4 2 3 3 3 4 3 0 2 3 2 4 6 4 2 4 3 4 6 2 1 1 3 4 2 2 4 4 4 2 1 2 3 4 4 5 6 8 10 12 13 14 15 16 17 17 16 14 13 12 10 10 11 12 12 12 12 12 12 13 14 14 13 13 13 14 15 16 18 18 18 16 14 12 10 10 9 8 8 8 8 7 7 7 6
2 3 3 2 3 2 3 3 1 2 2 2 4 6 3 3 4 4 4 4 2 1 1 3 3 2 2 4 3 1 2 4 3 4 5 5 5 6 10 14 15 16 17 17 17 18 19 18 17 15 14 12 10 11 11 12 13 13 12 12 13 14 14 14 13 13 13 14 16 18 20 19 18 17 16 15 15 13 12 12 11 11 10 9 9 8
1 2 2 1 2 2 3 3 2 2 2 3 3 4 3 2 4 4 2 2 1 1 2 3 3 3 3 3 3 2 4 5 5 5 6 5 5 7 10 12 13 13 15 17 18 18 18 18 18 18 17 14 12 12 12 12 13 14 13 14 14 14 14 15 14 14 14 14 14 15 17 19 19 18 17 17 16 16 16 16 15 13 12 11 10 10
1 2 2 1 0 2 2 1 2 3 4 4 1 1 1 2 3 3 2 2 2 2 3 3 3 4 3 2 3 3 3 4 4 5 5 5 6 8 10 12 13 13 14 16 17 18 18 18 18 19 18 16 14 14 13 13 15 15 15 16 16 15 16 16 16 16 16 14 14 13 14 16 19 21 21 20 19 19 19 19 18 16 14 13 12 12
1 1 2 1 1 2 2 2 2 2 3 4 4 4 3 3 3 3 3 3 2 2 2 2 3 4 4 3 3 3 3 4 5 4 4 5 5 6 9 11 12 14 15 17 18 20 20 19 19 20 20 19 16 15 14 14 15 17 18 17 17 17 18 18 19 19 19 17 15 14 13 13 15 19 22 22 21 21 21 21 20 18 16 15 14 13
0 1 3 3 3 3 4 3 2 1 1 3 4 3 3 3 3 3 4 4 2 2 2 2 2 3 4 4 4 4 4 5 6 6 6 6 6 9 12 13 14 15 16 17 18 20 21 21 21 21 22 22 21 19 17 16 17 18 19 18 17 18 19 20 21 21 21 21 19 17 15 14 13 14 18 21 22 22 22 21 20 19 17 16 16 15
1 1 3 4 3 3 2 2 2 1 2 2 3 3 4 4 3 3 4 3 2 2 2 2 2 3 3 4 3 2 4 5 5 6 6 6 7 10 13 15 17 18 18 18 19 20 20 20 20 20 21 23 23 22 21 21 21 20 20 19 18 19 20 21 22 22 22 22 22 20 17 15 14 12 13 17 21 23 23 22 21 20 19 18 17 16
1 3 4 3 2 2 2 4 2 2 3 2 2 3 3 4 4 3 3 3 4 3 2 2 3 3 2 2 2 0 4 4 4 5 6 5 7 10 13 15 17 19 20 20 21 21 20 19 19 20 21 23 23 22 23 24 24 24 24 22 21 20 20 22 22 23 24 23 22 21 20 17 15 13 12 13 16 19 22 22 21 20 20 18 18 17
2 2 1 2 3 3 1 2 3 3 4 5 2 1 2 3 4 4 3 3 3 3 3 4 4 3 3 2 2 3 4 5 5 5 5 5 7 10 13 16 17 19 20 21 21 20 20 20 21 22 23 24 24 24 24 26 27 27 26 26 25 22 22 22 22 22 23 23 22 22 21 19 17 16 14 12 12 14 17 19 20 20 19 18 17 16
2 2 1 3 4 1 2 4 5 3 1 3 4 2 1 3 4 4 4 4 3 3 3 4 4 5 5 4 4 4 3 4 6 7 6 6 9 12 15 17 18 18 19 19 20 20 20 20 20 22 23 24 24 24 25 26 27 27 27 27 27 25 25 24 24 23 23 23 22 22 21 19 17 17 16 15 12 11 13 15 17 17 17 16 16 14
3 3 3 4 4 4 5 6 6 4 1 3 4 3 2 3 5 4 2 1 0 1 2 3 2 3 4 5 6 5 4 5 8 8 7 8 12 15 16 17 17 17 18 18 19 19 20 20 21 21 22 23 24 24 24 25 26 27 27 26 25 25 25 26 26 27 26 25 23 23 22 19 17 15 15 16 14 12 13 15 14 14 14 15 15 15
Wind_Direction
97 107 187 200 207 219 214 186 168 167 129 115 126 160 210 221 272 265 265 281 179 144 223 197 175 204 193 181 177 167 160 159 167 169 163 158 163 179 187 193 204 215 213 174 170 177 177 184 190 190 189 188 193 200 205 204 196 195 195 194 199 203 201 201 199 190 184 177 170 163 156 151 141 136 136 130 122 115 109 104 99 97 94 93 97 98
61 115 229 221 205 206 201 174 144 128 103 84 128 205 271 219 250 262 254 303 293 137 279 174 139 213 211 182 175 161 163 174 176 176 171 164 170 185 192 198 202 205 183 141 149 161 165 178 189 190 188 185 186 192 200 204 199 195 195 196 198 198 197 202 202 191 183 177 171 163 154 153 147 142 146 143 133 121 110 103 100 97 93 91 94 99
27 233 245 228 184 158 146 136 131 135 113 83 122 159 278 243 273 288 270 316 336 120 292 123 116 342 266 198 191 178 175 178 172 174 176 171 176 188 195 202 199 190 187 167 154 158 164 171 182 187 190 190 187 187 193 200 198 196 196 197 197 195 194 201 202 191 181 174 173 167 158 160 157 150 153 154 148 134 118 107 98 92 93 90 91 104
208 255 250 199 146 141 151 130 116 106 102 118 138 142 253 258 299 296 282 327 348 75 130 125 101 23 334 3 246 250 169 114 125 148 174 192 195 199 199 203 202 195 197 189 172 169 170 171 177 185 189 191 191 187 188 193 196 198 199 198 197 196 196 199 197 189 180 174 174 170 162 166 164 158 162 161 154 151 147 138 116 93 88 88 94 106
220 238 182 127 144 159 168 157 129 130 248 254 186 169 219 246 207 224 285 335 351 27 75 89 65 10 354 141 227 278 57 103 139 155 175 206 210 214 207 203 204 202 204 198 186 180 177 174 177 182 185 190 194 193 192 194 197 199 199 199 199 197 195 195 192 186 180 175 171 165 161 165 162 157 160 155 145 148 151 144 128 111 103 109 111 109
245 236 153 139 168 170 167 194 179 164 194 304 237 202 203 203 211 244 336 16 34 20 10 60 67 334 321 278 217 252 86 107 158 175 184 195 194 205 207 201 196 199 210 204 185 177 179 176 175 179 184 188 194 196 198 199 197 196 197 197 196 194 191 190 189 186 182 179 175 171 169 167 161 157 159 155 144 141 134 121 112 108 107 110 113 114
251 237 143 149 156 155 170 230 222 162 126 316 246 205 188 165 155 191 54 69 95 231 318 64 109 193 319 313 247 271 205 170 195 196 198 193 197 206 204 202 191 192 206 195 172 175 181 179 177 182 187 189 192 193 194 194 192 192 193 191 189 187 186 186 186 185 184 180 178 181 181 178 173 167 167 168 160 147 135 122 112 106 104 104 100 104
199 156 89 115 113 126 160 240 228 147 122 235 231 159 148 153 157 147 106 96 177 213 334 16 93 118 338 277 286 335 140 211 241 214 218 207 203 210 204 200 195 193 195 186 183 185 185 188 189 189 191 190 189 189 190 190 189 188 185 182 182 182 183 184 185 187 187 182 178 181 184 182 180 177 174 175 171 158 149 137 123 112 105 102 96 92
191 173 197 133 99 132 193 214 193 150 140 240 205 137 134 142 140 117 95 85 26 114 307 329 31 100 246 276 318 20 129 238 247 221 221 214 206 209 204 200 198 193 187 186 191 189 189 195 194 192 192 191 190 191 190 185 175 170 174 175 178 182 185 187 187 188 188 184 181 184 184 178 173 175 174 172 170 165 163 153 134 123 111 106 99 90
234 204 201 145 125 216 220 208 179 161 172 210 144 103 69 74 78 74 90 97 41 67 224 289 355 102 252 288 329 40 110 243 254 239 224 215 210 208 203 202 195 186 185 189 195 193 193 194 193 192 190 191 195 192 181 161 137 150 182 187 186 189 190 189 190 190 187 184 185 187 188 182 173 172 173 171 172 170 172 164 143 129 117 112 106 103
281 275 190 154 181 200 178 143 168 159 138 130 104 66 44 33 33 48 55 81 72 359 252 266 290 131 201 284 263 125 237 239 263 277 245 210 203 202 201 198 186 182 182 180 187 188 184 187 188 189 189 190 191 183 170 167 172 187 201 202 196 194 192 189 190 191 187 184 191 195 195 193 185 183 184 182 180 178 177 166 147 133 122 116 112 119
332 339 252 255 229 156 110 74 59 46 74 98 81 73 73 6 10 31 359 43 95 265 260 269 277 150 154 254 246 268 277 263 251 260 253 223 208 199 195 190 178 176 176 172 176 171 163 166 174 181 184 182 179 174 175 181 188 196 203 203 201 197 191 188 188 191 189 186 195 202 203 203 201 203 206 199 193 187 179 165 148 139 133 130 128 129
324 261 270 307 276 154 113 77 32 15 34 77 84 89 96 22 11 34 318 1 155 241 255 301 310 177 202 222 221 264 282 282 256 250 259 249 226 195 173 166 154 152 158 152 131 145 164 159 165 177 174 170 174 175 178 188 194 198 202 204 200 190 181 183 189 194 194 193 201 205 205 206 208 212 215 211 203 194 185 172 158 149 140 140 144 144
307 300 318 325 282 188 131 130 145 307 71 125 133 126 122 102 80 188 268 316 238 243 273 317 315 252 271 260 229 267 282 289 289 280 267 235 191 152 136 126 114 105 104 92 63 23 328 192 161 162 157 162 176 181 184 193 198 200 204 199 173 148 165 184 190 196 198 200 204 206 205 206 207 210 212 210 205 195 187 179 170 165 153 142 146 157
190 307 281 202 247 259 154 162 164 154 146 167 156 128 140 153 141 185 216 176 199 238 309 310 297 167 217 284 292 287 297 317 342 6 49 84 98 107 101 88 85 79 81 92 90 69 356 324 173 143 151 171 182 188 190 196 200 201 196 156 122 132 175 191 195 202 205 204 204 204 205 205 207 209 206 203 204 199 189 180 183 190 180 161 155 168
154 242 260 255 255 158 172 185 135 115 98 212 132 108 149 180 141 133 174 168 166 137 33 277 233 201 217 287 315 329 345 356 16 52 79 84 85 89 82 74 71 61 68 77 85 103 55 299 278 165 165 179 185 189 194 201 202 193 158 124 133 161 192 204 212 216 212 207 204 205 207 204 204 205 201 198 201 203 197 184 195 218 214 203 189 189
136 254 282 319 347 161 180 183 142 133 161 173 127 159 213 174 119 110 127 50 85 120 184 260 252 303 345 336 329 359 15 10 15 38 89 105 104 98 91 89 83 65 59 40 357 107 158 263 265 207 179 181 184 189 198 206 199 169 128 123 136 165 200 212 217 218 214 211 207 206 205 203 204 203 200 199 199 201 196 169 216 251 241 240 241 218
144 259 291 352 70 327 328 107 84 74 125 130 173 193 184 97 93 104 109 20 49 137 247 337 286 277 42 48 308 345 13 11 8 18 74 99 107 110 114 117 113 109 101 59 320 314 168 232 243 204 189 190 191 195 204 205 189 152 135 131 139 175 202 209 213 213 216 216 209 205 205 205 206 205 202 199 200 203 186 158 207 247 244 247 248 230
120 234 292 278 161 312 355 70 65 1 57 121 173 159 114 118 133 92 118 131 108 158 261 342 331 242 190 210 253 239 219 211 232 282 104 99 109 123 135 131 121 118 124 135 277 296 291 26 110 175 184 192 193 196 202 195 175 154 146 146 171 201 204 207 213 214 218 219 210 209 211 208 205 205 202 195 196 202 188 175 205 231 232 235 238 234
102 133 273 279 198 333 5 63 144 305 13 45 69 61 50 129 152 152 138 148 144 154 201 324 354 263 226 210 190 205 228 221 207 214 160 88 89 115 143 128 111 102 107 128 154 308 356 32 46 125 165 182 186 188 188 175 160 152 153 164 200 215 209 210 214 215 218 218 212 212 211 208 205 204 205 200 197 199 196 193 201 209 211 216 227 236
81 127 221 290 337 40 36 208 190 184 128 67 59 63 20 70 118 146 90 88 129 139 166 162 232 264 253 215 183 200 229 230 211 192 154 46 55 57 66 91 100 101 104 120 122 71 36 45 56 86 128 162 172 173 172 165 158 156 162 176 195 206 210 210 212 216 216 210 207 208 209 208 205 204 208 210 206 203 205 205 199 196 207 216 222 232
122 145 178 299 4 58 261 285 260 204 165 140 139 161 153 123 121 125 110 297 107 120 165 158 182 263 271 272 249 232 227 229 200 146 122 79 81 72 60 74 86 102 116 119 80 56 44 53 67 84 109 137 153 159 162 162 162 163 170 180 187 199 208 211 217 219 214 206 204 209 211 208 205 207 213 216 212 210 213 212 201 195 209 223 226 227
143 112 103 54 12 216 264 297 328 357 109 107 105 125 133 122 113 126 170 220 101 93 158 122 124 255 272 293 285 278 247 215 167 137 130 108 95 89 79 74 66 68 85 94 82 64 50 65 80 91 100 113 130 148 158 162 168 171 177 185 192 201 211 219 224 220 213 212 213 216 217 215 214 219 223 220 217 217 217 214 207 202 210 224 230 230
117 92 81 19 314 312 304 324 353 17 63 73 51 51 89 77 99 139 172 172 133 149 154 93 119 252 292 326 326 321 329 108 107 116 123 116 92 87 85 76 76 78 68 90 93 75 62 75 87 90 90 95 105 123 152 167 175 178 182 188 193 201 210 215 217 215 213 216 220 222 222 221 225 232 232 224 220 220 219 216 214 214 216 224 232 236
133 93 96 96 23 350 335 340 344 351 35 76 55 8 44 69 76 113 131 81 112 184 154 127 191 244 291 342 8 16 33 59 58 68 97 108 99 88 86 83 98 122 111 78 68 58 64 75 86 97 100 104 109 115 135 154 170 178 180 185 189 194 199 203 207 211 214 217 220 220 219 220 226 232 231 225 221 220 219 215 215 221 224 225 234 251
105 76 102 128 149 173 187 229 250 258 17 55 90 33 46 81 89 132 121 83 135 193 139 136 194 241 306 351 8 10 18 33 31 39 58 70 71 61 57 66 71 74 69 54 38 35 43 41 57 97 108 109 114 123 127 127 138 153 162 174 184 188 190 194 200 206 212 218 218 213 213 218 223 225 225 223 221 220 218 216 215 221 224 219 226 251
99 56 59 114 138 176 188 225 234 150 88 44 118 56 45 57 66 91 96 115 179 163 133 213 185 157 342 347 358 358 4 20 18 22 32 35 36 30 24 31 32 35 37 26 16 10 4 0 360 22 63 85 98 111 115 114 120 132 144 154 165 176 183 187 192 196 203 211 213 211 211 216 220 223 225 225 223 220 218 218 217 220 224 218 215 226
95 39 11 70 59 50 183 277 326 88 87 59 42 32 32 40 52 78 93 171 148 125 195 269 169 108 1 341 351 346 351 15 21 17 22 25 20 22 30 32 30 27 20 18 19 11 3 358 351 359 12 22 34 55 76 93 110 123 133 141 148 158 173 183 187 190 194 200 206 211 216 221 225 227 226 223 221 218 217 218 219 224 232 228 219 222
104 67 340 63 39 18 21 20 41 71 71 50 30 8 24 48 56 76 85 331 77 133 195 220 87 81 355 336 344 339 348 22 35 26 28 31 23 32 45 42 32 24 20 23 20 13 12 6 356 3 10 11 13 18 27 44 69 94 114 131 139 143 156 173 180 185 193 198 203 210 215 219 222 223 221 218 217 218 218 221 228 233 236 234 230 234
108 118 110 92 54 17 11 27 55 62 55 41 21 5 41 69 67 72 65 18 67 107 145 114 89 67 345 317 331 337 350 46 62 48 42 39 33 45 53 47 37 30 27 26 23 22 25 18 16 21 20 18 16 13 11 15 25 45 76 104 124 134 146 159 169 176 186 193 200 210 216 219 220 221 220 218 216 216 217 221 227 228 227 228 231 239
96 154 165 98 73 4 345 4 37 53 63 53 15 359 35 69 65 53 32 26 65 86 105 99 88 65 6 347 356 357 25 62 59 48 44 40 37 53 60 52 44 41 35 34 34 33 32 30 28 28 27 28 27 22 15 10 11 26 47 62 79 103 131 155 167 172 181 187 194 207 221 230 228 219 216 217 217 217 218 219 220 220 223 232 240 246
71 132 140 88 105 244 296 326 48 69 77 71 23 354 8 52 79 72 38 14 88 140 136 99 96 107 310 349 22 36 53 59 53 43 43 42 41 56 64 58 53 49 42 43 44 41 38 35 33 32 34 37 38 34 29 23 17 19 26 35 48 61 70 104 155 165 179 188 196 210 223 233 231 220 216 220 224 224 224 223 220 221 227 238 249 251
90 136 143 111 133 183 205 152 145 104 96 109 279 326 4 67 116 103 59 15 14 132 145 138 150 179 232 11 64 61 57 58 52 39 38 39 42 53 58 55 51 44 37 38 40 40 41 42 45 46 43 41 39 36 34 36 34 26 22 24 30 41 65 79 108 153 175 184 192 204 210 213 220 221 221 222 224 225 222 215 211 211 215 220 225 227
77 117 139 130 128 154 166 109 104 114 147 230 277 273 183 135 123 107 78 15 7 43 116 129 121 112 82 81 89 80 71 71 67 56 50 47 49 53 52 49 46 39 31 29 27 25 20 19 31 41 40 36 32 29 29 35 39 37 35 34 30 28 29 39 80 118 140 167 186 198 206 212 217 220 218 214 212 210 203 198 196 192 185 179 177 179
72 86 121 95 107 141 136 74 103 190 219 263 313 334 118 115 111 103 87 44 20 34 67 86 89 101 108 107 109 104 99 99 86 66 52 46 50 59 57 49 47 48 41 31 27 26 22 16 12 17 21 20 20 23 24 26 31 38 40 39 35 29 23 20 20 22 28 46 182 201 222 230 227 220 216 213 216 216 205 189 176 162 151 144 140 136
112 111 117 70 90 137 109 96 153 224 253 281 330 354 84 86 80 86 72 34 11 18 54 86 82 95 112 112 122 116 108 100 81 60 45 40 43 53 58 49 43 51 51 41 33 33 33 31 24 20 20 20 21 24 23 18 17 19 24 28 29 25 23 24 20 8 358 353 331 293 256 235 220 213 211 207 202 189 171 161 155 149 144 141 137 133
119 125 119 76 83 136 120 117 121 358 354 203 254 332 101 338 319 111 103 56 357 353 6 105 85 60 70 46 335 333 24 54 54 34 17 22 28 36 47 42 35 37 37 35 36 36 38 41 40 35 31 27 27 26 22 17 7 354 350 358 7 7 5 10 13 11 10 12 359 309 265 237 221 210 189 176 171 166 160 157 157 157 157 154 146 137
73 113 161 154 147 111 100 91 47 23 278 221 227 271 274 248 226 157 113 80 345 345 342 110 93 56 49 32 349 336 43 55 44 350 336 356 6 12 23 21 20 22 21 21 24 27 28 29 28 24 18 15 17 18 17 15 9 355 340 330 336 341 335 328 331 337 347 22 51 33 348 228 209 210 201 191 187 184 181 180 178 177 175 168 155 142
41 42 100 117 122 112 111 129 166 188 226 232 240 276 294 259 196 118 82 54 305 353 2 76 84 55 49 45 24 47 79 77 51 274 296 335 348 354 1 1 1 5 7 10 13 12 11 12 10 7 4 3 4 4 2 2 3 1 351 337 330 326 320 314 312 311 308 298 119 34 339 333 186 197 206 212 215 211 205 200 193 187 181 174 167 158
26 17 48 96 116 106 112 136 185 194 226 248 254 277 294 229 130 101 102 240 263 350 8 94 97 72 47 38 39 65 90 139 204 247 275 317 340 344 351 350 348 349 351 356 360 358 356 356 357 356 356 356 356 354 350 345 345 348 347 342 336 329 323 319 312 301 290 273 250 255 278 285 277 264 243 227 224 222 220 215 203 192 186 186 197 202
17 17 49 112 100 70 97 115 263 250 242 263 282 290 298 125 122 130 204 224 233 358 71 116 114 106 33 31 47 74 83 199 238 283 319 347 352 345 348 350 349 349 349 349 350 350 348 344 344 345 344 344 343 343 342 337 332 333 332 329 327 326 327 325 317 305 294 282 268 262 267 269 264 262 263 257 245 235 226 218 210 209 213 218 224 223
18 19 23 73 75 62 107 110 73 278 277 323 308 303 327 115 166 210 213 201 181 127 90 94 103 110 64 47 53 65 327 322 334 342 343 350 350 341 345 350 352 352 351 349 349 350 346 339 336 335 332 333 332 329 330 327 320 319 318 312 311 315 316 317 319 315 305 294 279 267 262 260 254 248 242 237 231 223 214 210 211 214 217 216 216 219
63 63 32 55 90 84 75 69 92 207 287 335 323 314 4 102 177 193 155 128 133 67 35 44 50 52 59 45 15 332 315 330 351 353 344 342 345 345 347 351 351 348 347 348 350 351 349 342 336 331 326 323 321 317 316 313 309 308 306 302 304 307 306 306 310 311 308 303 292 276 262 255 247 235 225 222 221 216 209 206 206 205 204 203 201 205
42 105 152 203 62 97 112 120 158 201 280 324 30 113 67 92 161 163 113 78 81 53 30 34 29 22 36 38 5 342 334 345 352 349 345 345 345 346 346 348 348 346 346 347 346 346 347 343 336 329 324 319 317 314 309 302 298 297 296 298 303 306 303 302 304 304 303 301 297 289 275 260 249 240 235 232 227 219 210 204 201 199 198 195 192 195
358 96 132 116 62 92 129 154 154 185 295 347 49 87 86 65 71 103 101 80 57 30 25 50 32 8 17 26 10 2 2 352 345 345 346 340 332 334 336 336 337 337 337 337 337 336 336 333 328 325 321 318 317 316 311 306 303 299 295 297 302 303 302 303 303 301 300 298 295 294 293 284 265 249 242 235 225 214 207 202 199 196 193 191 192 196
228 87 73 84 105 83 61 63 94 101 20 31 46 57 77 69 50 71 93 93 73 39 42 65 57 22 22 33 27 9 349 343 342 339 338 335 329 329 330 328 327 329 329 328 329 329 327 323 320 318 315 312 312 311 308 305 304 302 298 295 296 296 297 299 299 298 298 296 294 292 293 296 289 268 248 235 224 216 211 208 205 200 194 192 195 198
273 107 74 87 116 103 90 163 173 93 61 69 72 69 69 65 52 66 90 110 118 85 56 55 70 61 50 61 63 359 323 327 334 330 328 330 327 326 327 325 323 324 324 323 324 324 321 318 314 312 310 307 306 307 307 302 298 297 296 294 292 290 289 289 290 291 291 291 291 289 286 285 288 283 259 238 226 219 215 214 212 208 202 198 196 197
324 77 88 91 86 90 175 190 156 63 13 359 81 115 106 88 80 75 85 112 121 107 92 94 109 119 106 96 111 354 321 326 329 325 324 324 319 318 318 317 316 317 317 318 320 320 318 315 311 308 306 303 303 304 303 299 296 295 294 293 291 289 288 284 280 280 283 283 283 283 281 277 276 279 274 255 237 227 221 217 215 214 212 208 206 202
10 55 103 104 82 76 122 142 98 46 350 328 330 130 139 130 116 90 71 87 96 89 83 77 76 80 71 44 13 354 340 328 321 319 316 310 308 309 310 310 311 311 312 313 317 317 314 311 307 305 303 302 303 303 299 295 293 292 291 290 288 287 287 283 276 274 275 275 274 273 273 272 269 269 273 270 255 240 231 224 219 218 218 216 213 211
59 99 143 100 98 140 216 177 152 132 290 263 245 233 189 139 118 90 62 51 43 45 67 61 38 30 28 12 354 347 328 307 310 312 303 299 303 306 307 309 309 309 310 312 314 313 310 307 306 303 301 302 304 303 300 297 295 293 290 288 284 282 279 276 275 274 272 271 270 268 267 269 268 265 266 267 261 248 235 227 220 216 215 214 212 211
110 154 169 137 145 215 222 182 156 136 160 222 214 204 190 139 117 113 123 132 91 191 148 121 66 12 353 344 341 337 312 302 313 315 304 299 304 305 306 307 307 308 310 311 310 307 306 307 306 303 301 303 305 303 300 298 298 296 293 290 285 280 275 271 269 270 269 268 267 264 263 263 264 262 260 258 256 248 237 231 226 219 217 219 218 215